Location: Springfield
(37.2150°N, 93.2980°W)
Time: 08:07:47
(UTC-05:00)

Cosmos 1727 Rocket - Pass Details

Date: 19 April 2018
Orbit: 960 x 997 km, 82.9° (Epoch: 22 May)

Event Time Altitude Azimuth Distance (km) Brightness Sun altitude
Rises 22:40:42 0° 349° (NNW) 3,656 7.8 -29.7°
Reaches altitude 10° 22:43:15 10° 346° (NNW) 2,703 7.0 -30.1°
Maximum altitude 22:49:18 60° 268° (W) 1,088 4.3 -30.9°
Enters shadow 22:49:48 58° 246° (WSW) 1,107 4.2 -30.9°
